Jackson, MN

3:53 AM CDT on April 26, 2017 (GMT -0500)
Jackson Municipal

Weather History for KMJQ - June, 2014

Change the Weather History Date:

Tuesday, June 24, 2014

  Actual Average Record
Temperature  
Mean Temperature 70 °F -  
Max Temperature 80 °F 79 °F 96 °F (2001)
Min Temperature 60 °F 57 °F 50 °F (2004)
Cooling Degree Days 5    
Growing Degree Days 20 (Base 50)    
Moisture  
Dew Point 57 °F    
Average Humidity 64    
Maximum Humidity 88    
Minimum Humidity 37    
Precipitation  
Precipitation 0.00 in - - ()
Sea Level Pressure  
Sea Level Pressure 29.97 in    
Wind  
Wind Speed 5 mph (WNW)    
Max Wind Speed 16 mph    
Max Gust Speed 21 mph    
Visibility 10 miles    
Events      
Averages and records for this station are not official NWS values.
T = Trace of Precipitation, MM = Missing Value Source: NWS Daily Summary

Daily Weather History Graph

Daily Weather History Graph

Search for Another Location

Airport or City:

Trip Planner

Search our weather history database for the weather conditions in past years. The results will help you decide how hot, cold, wet, or windy it might be!

Date:

Astronomy

Jun. 24, 2014 Rise Set
Actual Time 5:39 AM CDT 9:05 PM CDT
Civil Twilight 5:03 AM CDT 9:41 PM CDT
Nautical Twilight 4:16 AM CDT 10:28 PM CDT
Astronomical Twilight 3:16 AM CDT 11:28 PM CDT
Moon 3:50 AM CDT (6/24) 6:41 PM CDT (6/24)
Length of Visible Light 16h 38m
Length of Day
15h 26m
Waning Crescent, 7% of the Moon is Illuminated
Jun 24
Waning Crescent
Jun 27
New
Jul 5
First Quarter
Jul 12
Full
Jul 18
Last Quarter

Hourly Weather History & Observations

Time (CDT) Temp. Heat Index Dew Point Humidity Pressure Visibility Wind Dir Wind Speed Gust Speed Precip Events Conditions
12:12 AM 62.6 °F - 59.0 °F 88% 29.95 in 10.0 mi Calm Calm - N/A   Scattered Clouds
12:32 AM 62.6 °F - 59.0 °F 88% 29.96 in 10.0 mi WSW 4.6 mph - N/A   Clear
12:52 AM 60.8 °F - 57.2 °F 88% 29.96 in 10.0 mi WSW 3.5 mph - N/A   Clear
1:12 AM 60.8 °F - 57.2 °F 88% 29.96 in 10.0 mi WSW 4.6 mph - N/A   Clear
1:31 AM 62.6 °F - 59.0 °F 88% 29.96 in 10.0 mi WSW 3.5 mph - N/A   Mostly Cloudy
1:52 AM 62.6 °F - 59.0 °F 88% 29.96 in 10.0 mi West 4.6 mph - N/A   Mostly Cloudy
2:12 AM 62.6 °F - 57.2 °F 82% 29.95 in 10.0 mi West 3.5 mph - N/A   Scattered Clouds
2:31 AM 62.6 °F - 57.2 °F 82% 29.96 in 10.0 mi West 3.5 mph - N/A   Clear
2:52 AM 62.6 °F - 57.2 °F 82% 29.96 in 10.0 mi WSW 4.6 mph - N/A   Clear
3:12 AM 62.6 °F - 55.4 °F 77% 29.96 in 10.0 mi Calm Calm - N/A   Clear
3:31 AM 62.6 °F - 55.4 °F 77% 29.96 in 10.0 mi Calm Calm - N/A   Clear
3:52 AM 60.8 °F - 55.4 °F 82% 29.95 in 10.0 mi West 3.5 mph - N/A   Clear
4:12 AM 60.8 °F - 55.4 °F 82% 29.95 in 10.0 mi West 3.5 mph - N/A   Clear
4:31 AM 60.8 °F - 55.4 °F 82% 29.95 in 10.0 mi West 4.6 mph - N/A   Clear
4:52 AM 60.8 °F - 55.4 °F 82% 29.95 in 10.0 mi West 3.5 mph - N/A   Clear
5:12 AM 60.8 °F - 55.4 °F 82% 29.95 in 10.0 mi West 4.6 mph - N/A   Clear
5:31 AM 60.8 °F - 55.4 °F 82% 29.95 in 10.0 mi West 4.6 mph - N/A   Clear
5:52 AM 60.8 °F - 55.4 °F 82% 29.96 in 10.0 mi West 4.6 mph - N/A   Clear
6:12 AM 60.8 °F - 55.4 °F 82% 29.96 in 10.0 mi West 3.5 mph - N/A   Clear
6:31 AM 60.8 °F - 57.2 °F 88% 29.96 in 10.0 mi West 4.6 mph - N/A   Clear
6:52 AM 62.6 °F - 59.0 °F 88% 29.96 in 10.0 mi West 4.6 mph - N/A   Clear
7:12 AM 64.4 °F - 59.0 °F 83% 29.97 in 10.0 mi West 5.8 mph - N/A   Clear
7:31 AM 64.4 °F - 59.0 °F 83% 29.97 in 10.0 mi West 4.6 mph - N/A   Clear
7:52 AM 68.0 °F - 59.0 °F 73% 29.97 in 10.0 mi West 5.8 mph - N/A   Clear
8:12 AM 68.0 °F - 59.0 °F 73% 29.97 in 10.0 mi West 9.2 mph - N/A   Clear
8:31 AM 69.8 °F - 59.0 °F 68% 29.97 in 10.0 mi West 8.1 mph - N/A   Clear
9:12 AM 71.6 °F - 59.0 °F 64% 29.98 in 10.0 mi WNW 6.9 mph - N/A   Clear
9:31 AM 73.4 °F - 59.0 °F 61% 29.98 in 10.0 mi WNW 6.9 mph - N/A   Clear
9:52 AM 73.4 °F - 59.0 °F 61% 29.98 in 10.0 mi WNW 8.1 mph - N/A   Clear
10:12 AM 75.2 °F - 59.0 °F 57% 29.98 in 10.0 mi WNW 9.2 mph - N/A   Clear
10:31 AM 75.2 °F - 57.2 °F 53% 29.98 in 10.0 mi WNW 8.1 mph - N/A   Clear
10:52 AM 77.0 °F - 57.2 °F 50% 29.99 in 10.0 mi WNW 10.4 mph - N/A   Clear
11:11 AM 77.0 °F - 55.4 °F 47% 29.99 in 10.0 mi NW 10.4 mph 16.1 mph N/A   Clear
11:32 AM 77.0 °F - 55.4 °F 47% 29.99 in 10.0 mi NW 10.4 mph - N/A   Clear
11:52 AM 78.8 °F - 55.4 °F 44% 29.99 in 10.0 mi WNW 10.4 mph - N/A   Clear
12:11 PM 78.8 °F - 53.6 °F 42% 30.00 in 10.0 mi NW 9.2 mph 18.4 mph N/A   Clear
12:32 PM 78.8 °F - 55.4 °F 44% 29.99 in 10.0 mi West 9.2 mph 16.1 mph N/A   Clear
12:52 PM 78.8 °F - 53.6 °F 42% 29.99 in 10.0 mi WNW 12.7 mph 19.6 mph N/A   Clear
1:11 PM 78.8 °F - 53.6 °F 42% 29.98 in 10.0 mi WNW 8.1 mph 18.4 mph N/A   Scattered Clouds
1:32 PM 78.8 °F - 53.6 °F 42% 29.98 in 10.0 mi WNW 13.8 mph - N/A   Scattered Clouds
1:51 PM 80.6 °F 80.3 °F 53.6 °F 39% 29.98 in 10.0 mi WNW 13.8 mph - N/A   Scattered Clouds
2:12 PM 80.6 °F 80.3 °F 53.6 °F 39% 29.97 in 10.0 mi WNW 11.5 mph 18.4 mph N/A   Clear
2:32 PM 80.6 °F - 51.8 °F 37% 29.97 in 10.0 mi NW 16.1 mph 20.7 mph N/A   Clear
2:51 PM 80.6 °F 80.3 °F 53.6 °F 39% 29.97 in 10.0 mi WNW 11.5 mph - N/A   Clear
3:11 PM 80.6 °F 80.3 °F 53.6 °F 39% 29.97 in 10.0 mi NNW 10.4 mph 17.3 mph N/A   Scattered Clouds
3:32 PM 80.6 °F 80.3 °F 53.6 °F 39% 29.97 in 10.0 mi WNW 11.5 mph 17.3 mph N/A   Scattered Clouds
3:51 PM 80.6 °F 80.3 °F 53.6 °F 39% 29.97 in 10.0 mi NW 15.0 mph - N/A   Clear
4:12 PM 80.6 °F 80.3 °F 53.6 °F 39% 29.96 in 10.0 mi NW 12.7 mph 18.4 mph N/A   Clear
4:32 PM 80.6 °F - 51.8 °F 37% 29.96 in 10.0 mi NW 8.1 mph - N/A   Clear
4:52 PM 80.6 °F - 51.8 °F 37% 29.96 in 10.0 mi NW 8.1 mph - N/A   Scattered Clouds
5:12 PM 80.6 °F 80.3 °F 53.6 °F 39% 29.96 in 10.0 mi NW 8.1 mph - N/A   Scattered Clouds
5:32 PM 78.8 °F - 53.6 °F 42% 29.96 in 10.0 mi NNW 6.9 mph - N/A   Scattered Clouds
5:52 PM 78.8 °F - 55.4 °F 44% 29.96 in 10.0 mi NW 8.1 mph - N/A   Mostly Cloudy
6:12 PM 77.0 °F - 57.2 °F 50% 29.96 in 10.0 mi NNW 10.4 mph - N/A   Mostly Cloudy
6:31 PM 78.8 °F - 55.4 °F 44% 29.96 in 10.0 mi NNW 9.2 mph - N/A   Scattered Clouds
6:52 PM 78.8 °F - 53.6 °F 42% 29.96 in 10.0 mi NW 10.4 mph - N/A   Scattered Clouds
7:12 PM 77.0 °F - 55.4 °F 47% 29.96 in 10.0 mi NNW 6.9 mph - N/A   Scattered Clouds
7:31 PM 77.0 °F - 57.2 °F 50% 29.96 in 10.0 mi NNW 6.9 mph - N/A   Clear
7:52 PM 75.2 °F - 59.0 °F 57% 29.97 in 10.0 mi NW 6.9 mph - N/A   Clear
8:12 PM 73.4 °F - 59.0 °F 61% 29.97 in 10.0 mi NNW 5.8 mph - N/A   Clear
8:31 PM 71.6 °F - 59.0 °F 64% 29.98 in 10.0 mi NNW 4.6 mph - N/A   Clear
8:52 PM 71.6 °F - 59.0 °F 64% 29.98 in 10.0 mi Calm Calm - N/A   Clear
9:32 PM 69.8 °F - 60.8 °F 73% 29.98 in 10.0 mi Calm Calm - N/A   Scattered Clouds
9:52 PM 68.0 °F - 60.8 °F 78% 29.99 in 10.0 mi NNW 3.5 mph - N/A   Clear
10:11 PM 68.0 °F - 59.0 °F 73% 29.99 in 10.0 mi NNW 4.6 mph - N/A   Clear
10:32 PM 66.2 °F - 59.0 °F 78% 29.99 in 10.0 mi NNW 3.5 mph - N/A   Clear
10:51 PM 66.2 °F - 59.0 °F 78% 30.00 in 10.0 mi NNW 3.5 mph - N/A   Clear
11:12 PM 64.4 °F - 59.0 °F 83% 30.00 in 10.0 mi NNW 4.6 mph - N/A   Clear
11:31 PM 64.4 °F - 59.0 °F 83% 30.01 in 10.0 mi NNW 5.8 mph - N/A   Clear
11:52 PM 64.4 °F - 59.0 °F 83% 30.01 in 10.0 mi NNW 4.6 mph - N/A   Clear